sat.trackr.live / text

‹ back to catalog

GAOFEN-8

NORAD 40701 · 2015-030A

PAYLOAD ACTIVE UNKNOWN

§ Identity

Operator
Country
PRC
Launch date
2015-06-26
Launch site
TAISC
Launch vehicle
Mass (kg)
RCS (m²)
5.01

Purposes: earth_obs

External: N2YO · Heavens-Above · Gunter

§ Orbital elements

Epoch: 2026-09-20T04:50:14.102304Z

Period
92.95 min
Inclination
97.6857°
Eccentricity
0.0007379
Mean motion
15.49145856 rev/d
Perigee alt
414.2 km
Apogee alt
424.2 km
Semi-major
6,797.4 km
B*
2.3329e-4
RAAN
102.4984°
Arg perigee
202.8753°
Mean anomaly
157.2169°
Rev number
62,614

§ Raw data

GAOFEN-81 40701U 15030A   26263.20155211  .00012603  00000+0  23329-3 0  99902 40701  97.6857 102.4984 0007379 202.8753 157.2169 15.49145856626145

JSON: /api/v1/satellites/40701 · /tle

For live sub-satellite position, see the globe view (requires WebGL).

§ Visibility from observer

Set your observer location to see the next 7 days of passes ≥ 10°. The values pass through the URL so the page stays shareable.

No JS? Fill the form by hand. The geolocation button needs JavaScript.

§ Radio — SatNOGS DB

ModeDescriptionDownlinkUplink
FM S-band telemetry 2.280 GHz

1 transmitter · refreshed weekly from db.satnogs.org